Weather History for Luxor, Egypt

Change the Weather History Date:

Wednesday, July 31, 2013

  Actual Average Record
Temperature  
Mean Temperature 90 °F -  
Max Temperature 105 °F 103 °F - ()
Min Temperature 75 °F 76 °F - ()
Cooling Degree Days 25    
Growing Degree Days 40 (Base 50)    
Moisture  
Dew Point 55 °F    
Average Humidity 27    
Maximum Humidity 39    
Minimum Humidity 13    
Precipitation  
Precipitation 0.00 in 0.00 in - ()
Sea Level Pressure  
Sea Level Pressure 29.66 in    
Wind  
Wind Speed 2 mph ()    
Max Wind Speed 8 mph    
Max Gust Speed -    
Visibility 6.0 miles    
Events      
T = Trace of Precipitation, MM = Missing Value Source: Averaged Metar Reports

Daily Weather History Graph

Daily Weather History Graph

Search for Another Location

Airport:

Trip Planner

Search our weather history database for the weather conditions in past years. The results will help you decide how hot, cold, wet, or windy it might be!

Date:

Astronomy

Jul. 31, 2013 Rise Set
Actual Time 5:15 AM EET 6:35 PM EET
Civil Twilight 4:50 AM EET 7:00 PM EET
Nautical Twilight 4:20 AM EET 7:29 PM EET
Astronomical Twilight 3:50 AM EET 8:00 PM EET
Moon No Moon Rise 1:32 PM EET (7/31)
Length of Visible Light 14h 09m
Length of Day
13h 20m
Waning Crescent, 34% of the Moon is Illuminated
Jul 31
Waning Crescent
Aug 6
New
Aug 14
First Quarter
Aug 21
Full
Aug 28
Last Quarter

Hourly Weather History & Observations

Time (EET) Temp. Heat Index Dew Point Humidity Pressure Visibility Wind Dir Wind Speed Gust Speed Precip Events Conditions
12:00 AM 84.2 °F - 51.8 °F 33% 29.68 in - Calm Calm - N/A   Clear
1:00 AM 86.0 °F - 50.0 °F 29% 29.65 in - Calm Calm - N/A   Clear
2:00 AM 84 °F - 50 °F 20% 29.66 in 6 mi SSE 2.3 mph - -  
2:00 AM 84.2 °F - 50.0 °F 30% 29.65 in - SSE 2.3 mph - N/A   Clear
3:00 AM 82.4 °F - 50.0 °F 32% 29.65 in - Calm Calm - N/A   Clear
4:00 AM 82.4 °F - 50.0 °F 32% 29.65 in - Calm Calm - N/A   Clear
5:00 AM 77.0 °F - 50.0 °F 39% 29.68 in - SSW 2.3 mph - N/A   Clear
6:00 AM 80.6 °F - 48.2 °F 32% 29.68 in - SSE 2.3 mph - N/A   Clear
7:00 AM 86.0 °F 84.2 °F 53.6 °F 33% 29.71 in - Calm Calm - N/A   Clear
8:00 AM 89 °F - 57 °F 24% 29.70 in 6 mi WSW 3.5 mph - -  
8:00 AM 89.6 °F 88.1 °F 57.2 °F 33% 29.71 in - WSW 3.5 mph - N/A   Clear
9:00 AM 93.2 °F 93.3 °F 60.8 °F 34% 29.71 in - Calm Calm - N/A   Clear
10:00 AM 96.8 °F 95.8 °F 57.2 °F 27% 29.71 in - North 2.3 mph - N/A   Clear
11:00 AM 100.4 °F 100.2 °F 59.0 °F 25% 29.68 in - NNE 5.8 mph - N/A   Clear
12:00 PM 100.4 °F 100.2 °F 59.0 °F 25% 29.68 in - NNE 3.5 mph - N/A   Clear
1:00 PM 104.0 °F 104.6 °F 59.0 °F 23% 29.68 in - Calm Calm - N/A   Clear
2:00 PM 104 °F - 56 °F 13% 29.65 in 6 mi WNW 2.3 mph - -  
2:00 PM 104.0 °F 102.9 °F 55.4 °F 20% 29.65 in - NE 2.3 mph - N/A   Clear
3:00 PM 104.0 °F 103.4 °F 57.2 °F 21% 29.65 in - WNW 4.6 mph - N/A   Clear
4:00 PM 104.0 °F 103.4 °F 57.2 °F 21% 29.62 in - WNW 5.8 mph - N/A   Clear
5:00 PM 102.2 °F 102.4 °F 59.0 °F 24% 29.62 in - WNW 8.1 mph - N/A   Clear
6:00 PM 100.4 °F 100.2 °F 59.0 °F 25% 29.62 in - NW 3.5 mph - N/A   Clear
7:00 PM 96.8 °F 95.8 °F 57.2 °F 27% 29.62 in - NNW 3.5 mph - N/A   Clear
8:00 PM 93 °F - 55 °F 19% 29.64 in 6 mi Calm Calm - -  
8:00 PM 93.2 °F 91.3 °F 55.4 °F 28% 29.65 in - Calm Calm - N/A   Clear
9:00 PM 91.4 °F 89.4 °F 55.4 °F 29% 29.65 in - Calm Calm - N/A   Clear
10:00 PM 89.6 °F - 51.8 °F 27% 29.65 in - Calm Calm - N/A   Clear
11:00 PM 87.8 °F - 51.8 °F 29% 29.65 in - Calm Calm - N/A   Clear